Date String (YYYY-MM-DD hh:mm:ss) UTC,Instrument flags,absolute air pressure of the measurement (hPa),sample flow rate (lpm),inlet stack bypass flow (lpm),air temperature of the measurement (°C),ambient temperature measured by the external sensor (°C),aerosol sample conditioner tube jacket temperature (°C),OPC LED temperature (°C),internal box temperature (°C),relative humidity of the measurement (%),span deviation,mass concentration of particles derived from Lorenz-Mie calculation of OPC scattering (μg/m³),mass concentration of particles derived from Lorenz-Mie calculation of OPC scattering (μg/m³),mass concentration of particles derived from Lorenz-Mie calculation of OPC scattering (μg/m³)
DateTimeUTC,F1_M11,P_M11,Q1_M11,Q2_M11,T1_M11,T2_M11,T3_M11,T4_M11,T5_M11,U1_M11,ZSPAN_M11,X0_M11,X2_M11,X1_M11
2023-12-18 14:00:00,SystemResetWarning,0833.5,5.01,000.00,019.0,018.1,000.0,027.4,020.2,11.9,0000.0,0005.08,0001.45,0001.13
2023-12-18 14:01:00,SystemResetWarning,0833.4,5.00,000.00,019.0,018.1,000.0,027.4,020.2,11.9,0000.0,0004.86,0001.45,0001.12
2023-12-18 14:02:00,SystemResetWarning,0833.4,5.00,000.00,019.0,018.1,000.0,027.4,020.2,11.9,0000.0,0004.36,0001.43,0001.12
2023-12-18 14:03:00,SystemResetWarning,0833.4,5.00,000.00,019.0,018.1,000.0,027.4,020.2,11.9,0000.0,0002.84,0001.42,0001.11
2023-12-18 14:04:00,SystemResetWarning,0833.4,4.99,000.00,019.0,018.1,000.0,027.4,020.2,11.9,0000.0,0002.90,0001.44,0001.12
2023-12-18 14:05:00,SystemResetWarning,0833.4,5.00,000.00,019.0,018.1,000.0,027.4,020.2,11.9,0000.0,0002.81,0001.40,0001.11
2023-12-18 14:06:00,SystemResetWarning,0833.4,5.00,000.00,019.0,018.1,000.0,027.4,020.2,11.9,0000.0,0002.88,0001.40,0001.12
2023-12-18 14:07:00,SystemResetWarning,0833.4,5.00,000.00,019.0,018.0,000.0,027.4,020.2,11.9,0000.0,0002.58,0001.40,0001.13
2023-12-18 14:08:00,SystemResetWarning,0833.4,5.00,000.00,019.0,018.0,000.0,027.3,020.2,11.9,0000.0,0002.05,0001.37,0001.13
2023-12-18 14:09:00,SystemResetWarning,0833.4,5.00,000.00,019.0,018.0,000.0,027.3,020.2,11.9,0000.0,0002.03,0001.37,0001.15
2023-12-18 14:10:00,SystemResetWarning,0833.4,5.01,000.00,019.0,018.0,000.0,027.3,020.2,11.9,0000.0,0002.03,0001.39,0001.15
2023-12-18 14:11:00,SystemResetWarning,0833.4,5.00,000.00,019.0,018.0,000.0,027.3,020.2,11.9,0000.0,0002.02,0001.37,0001.15
2023-12-18 14:12:00,SystemResetWarning,0833.4,5.01,000.00,018.9,018.0,000.0,027.3,020.2,11.9,0000.0,0001.94,0001.35,0001.14
2023-12-18 14:13:00,SystemResetWarning,0833.4,5.00,000.00,018.9,018.0,000.0,027.3,020.1,11.9,0000.0,0001.88,0001.33,0001.14
2023-12-18 14:14:00,SystemResetWarning,0833.4,5.00,000.00,018.9,018.0,000.0,027.3,020.2,11.9,0000.0,0001.97,0001.31,0001.14
2023-12-18 14:15:00,SystemResetWarning,0833.3,4.99,000.00,018.9,018.0,000.0,027.3,020.2,11.9,0000.0,0003.19,0001.30,0001.13
2023-12-18 14:16:00,SystemResetWarning,0833.2,4.99,000.00,018.9,017.9,000.0,027.3,020.2,11.9,0000.0,0003.19,0001.30,0001.14
2023-12-18 14:17:00,SystemResetWarning,0833.2,5.00,000.00,018.9,017.9,000.0,027.3,020.1,11.8,0000.0,0003.04,0001.27,0001.13
2023-12-18 14:18:00,SystemResetWarning,0833.2,5.01,000.00,018.9,017.9,000.0,027.3,020.1,11.8,0000.0,0003.08,0001.29,0001.12
2023-12-18 14:19:00,SystemResetWarning,0833.2,5.00,000.00,018.9,017.9,000.0,027.3,020.1,11.8,0000.0,0003.20,0001.33,0001.11
2023-12-18 14:20:00,SystemResetWarning,0833.2,5.00,000.00,018.9,017.9,000.0,027.3,020.1,11.8,0000.0,0003.48,0001.35,0001.11
2023-12-18 14:21:00,SystemResetWarning,0833.2,5.01,000.00,018.9,017.9,000.0,027.3,020.1,11.8,0000.0,0003.49,0001.34,0001.11
2023-12-18 14:22:00,SystemResetWarning,0833.2,5.01,000.00,018.9,017.9,000.0,027.3,020.1,11.8,0000.0,0003.69,0001.38,0001.11
2023-12-18 14:23:00,SystemResetWarning,0833.2,5.00,000.00,018.9,017.9,000.0,027.2,020.1,11.8,0000.0,0003.83,0001.42,0001.11
2023-12-18 14:24:00,SystemResetWarning,0833.2,5.00,000.00,018.9,017.9,000.0,027.2,020.1,11.8,0000.0,0004.01,0001.48,0001.11
2023-12-18 14:25:00,SystemResetWarning,0833.2,5.00,000.00,018.9,017.9,000.0,027.2,020.1,11.8,0000.0,0004.16,0001.52,0001.12
2023-12-18 14:26:00,SystemResetWarning,0833.2,5.00,000.00,018.9,017.9,000.0,027.2,020.1,11.8,0000.0,0002.83,0001.53,0001.12
2023-12-18 14:27:00,SystemResetWarning,0833.2,5.00,000.00,018.9,017.9,000.0,027.2,020.1,11.8,0000.0,0002.89,0001.53,0001.11
2023-12-18 14:28:00,SystemResetWarning,0833.2,5.00,000.00,018.8,017.9,000.0,027.2,020.0,11.8,0000.0,0004.25,0001.54,0001.11
2023-12-18 14:29:00,SystemResetWarning,0833.1,4.99,000.00,018.8,017.9,000.0,027.2,020.0,11.8,0000.0,0004.29,0001.53,0001.12
2023-12-18 14:30:00,SystemResetWarning,0833.2,5.00,000.00,018.8,017.9,000.0,027.2,020.1,11.8,0000.0,0004.23,0001.48,0001.11
2023-12-18 14:31:00,SystemResetWarning,0833.2,5.00,000.00,018.8,017.9,000.0,027.2,020.1,11.9,0000.0,0003.92,0001.43,0001.11
2023-12-18 14:32:00,SystemResetWarning,0833.2,5.00,000.00,018.8,017.9,000.0,027.2,020.1,11.9,0000.0,0003.99,0001.44,0001.10
2023-12-18 14:33:00,SystemResetWarning,0833.2,5.00,000.00,018.8,017.9,000.0,027.2,020.1,11.9,0000.0,0003.72,0001.38,0001.09
2023-12-18 14:34:00,SystemResetWarning,0833.2,4.99,000.00,018.8,017.9,000.0,027.2,020.1,12.0,0000.0,0003.99,0001.36,0001.09
2023-12-18 14:35:00,SystemResetWarning,0833.2,5.00,000.00,018.8,017.9,000.0,027.2,020.1,12.1,0000.0,0005.41,0001.34,0001.10
2023-12-18 14:36:00,SystemResetWarning,0833.2,5.00,000.00,018.8,017.9,000.0,027.2,020.0,12.0,0000.0,0005.65,0001.31,0001.09
2023-12-18 14:37:00,SystemResetWarning,0833.2,5.00,000.00,018.8,017.9,000.0,027.2,020.0,12.1,0000.0,0005.60,0001.32,0001.10
2023-12-18 14:38:00,SystemResetWarning,0833.2,4.99,000.00,018.8,017.9,000.0,027.2,020.1,12.2,0000.0,0005.53,0001.32,0001.10
2023-12-18 14:39:00,SystemResetWarning,0833.1,5.01,000.00,018.8,017.9,000.0,027.2,020.1,12.2,0000.0,0004.34,0001.30,0001.10
2023-12-18 14:40:00,SystemResetWarning,0833.1,4.99,000.00,018.8,017.9,000.0,027.2,020.1,12.1,0000.0,0004.13,0001.31,0001.10
2023-12-18 14:41:00,SystemResetWarning,0833.1,5.00,000.00,018.8,017.9,000.0,027.2,020.1,12.0,0000.0,0004.18,0001.32,0001.10
2023-12-18 14:42:00,SystemResetWarning,0833.1,5.00,000.00,018.8,017.9,000.0,027.2,020.1,12.0,0000.0,0004.33,0001.33,0001.09
2023-12-18 14:43:00,SystemResetWarning,0833.1,5.00,000.00,018.8,017.9,000.0,027.2,020.1,12.0,0000.0,0004.74,0001.28,0001.09
2023-12-18 14:44:00,SystemResetWarning,0833.1,5.00,000.00,018.8,017.9,000.0,027.2,020.0,12.0,0000.0,0004.91,0001.31,0001.10
2023-12-18 14:45:00,SystemResetWarning,0833.0,5.00,000.00,018.8,017.9,000.0,027.2,020.1,11.9,0000.0,0004.89,0001.33,0001.10
2023-12-18 14:46:00,SystemResetWarning,0833.3,5.01,000.00,018.8,017.9,000.0,027.2,020.0,11.9,0000.0,0003.27,0001.31,0001.10
2023-12-18 14:47:00,SystemResetWarning,0833.1,5.01,000.00,018.8,017.9,000.0,027.2,020.0,11.9,0000.0,0003.06,0001.36,0001.11
2023-12-18 14:48:00,SystemResetWarning,0833.3,5.00,000.00,018.8,017.9,000.0,027.2,020.1,11.9,0000.0,0003.25,0001.37,0001.11
2023-12-18 14:49:00,SystemResetWarning,0833.0,5.00,000.00,018.8,017.9,000.0,027.2,020.1,11.9,0000.0,0003.49,0001.38,0001.11
2023-12-18 14:50:00,SystemResetWarning,0833.0,5.00,000.00,018.8,017.9,000.0,027.2,020.1,11.9,0000.0,0004.52,0001.38,0001.11
2023-12-18 14:51:00,SystemResetWarning,0833.0,4.99,000.00,018.9,017.9,000.0,027.2,020.1,11.9,0000.0,0005.33,0001.39,0001.12
2023-12-18 14:52:00,SystemResetWarning,0833.3,4.99,000.00,018.9,018.0,000.0,027.2,020.1,11.9,0000.0,0005.38,0001.40,0001.12
2023-12-18 14:53:00,SystemResetWarning,0833.2,5.00,000.00,018.8,018.0,000.0,027.2,020.1,12.0,0000.0,0005.31,0001.40,0001.12
2023-12-18 14:54:00,SystemResetWarning,0833.0,5.01,000.00,018.8,018.0,000.0,027.2,020.1,12.0,0000.0,0004.96,0001.41,0001.13
2023-12-18 14:55:00,SystemResetWarning,0833.2,5.01,000.00,018.8,018.0,000.0,027.2,020.1,12.0,0000.0,0004.64,0001.39,0001.13
2023-12-18 14:56:00,SystemResetWarning,0833.1,5.01,000.00,018.8,017.9,000.0,027.1,020.1,12.0,0000.0,0004.57,0001.38,0001.12
2023-12-18 14:57:00,SystemResetWarning,0833.0,5.00,000.00,018.8,017.9,000.0,027.1,020.1,12.0,0000.0,0004.65,0001.40,0001.12
2023-12-18 14:58:00,SystemResetWarning,0833.0,5.00,000.00,018.8,017.9,000.0,027.1,020.1,12.0,0000.0,0004.51,0001.37,0001.11
2023-12-18 14:59:00,SystemResetWarning,0833.0,5.00,000.00,018.8,017.9,000.0,027.1,020.0,12.0,0000.0,0004.13,0001.34,0001.11
